Starlink 34144

operational
NORAD ID: 63958 Int'l Des: 2025-099 Owner: SPXS Country: US Constellation: starlink
LEOCIRCULAR

Über Starlink 34144

Beschreibung wird geladen...

Live-Position

3D-Globus wird geladen...

Nächste Überflüge

Höhenverlauf

Altitude vs Time

uPlot chart will show altitude changes over time

Zweizeiliger Elementsatz

1 63958U 25099G 26062.47210661 .00031078 00000-0 11335-2 0 9993
2 63958 42.9993 211.4872 0002894 279.5746 80.4779 15.27595243 46386
Epoch: 3. März 2026 • Age: 29 hours

Aktueller Status

Höhe 486.1 km
Geschwindigkeit 7.63 km/s
Subsatellitenpunkt 36.59°N, 24.9°E
Startdatum 13. Mai 2025
Alter 0.8 years
Typ internet

Technische Details

Klassifizierung Payload
Masse 575.00 kg
Trockenmasse 530.00 kg
Gesamtmasse 575.00 kg
Länge 0.30 m
Durchmesser 4.10 m
Spannweite 29.00 m
Form Box + pan
Hersteller SPXS
Bus-Typ Starlink V2MO
Phasenstatus In Orbit
Besitzer/Staat SPXS/US

Große Konstellationen

Loading constellations...